YPPH

Perth International Airport

Airport
ICAO code
YPPH
IATA Code
PER
Summary
ICAO Region
APAC
ICAO Territory
Location

Redcliffe, Western Australia

Serving
Perth
Elevation
67 ft
Coordinates
31° 56' 37" S , 115° 57' 48" E
KCC
Airport WX
Cumulonimbus
Metar
Observation
YPPH 282230Z 07011KT CAVOK 18/09 Q1010
Station
Belmont Perth Airport
Date/Time
2023-01-28 22:30:00
Wind direction
70°
Wind speed
11 kts
Lowest cloud amount
clouds and visibility OK
Temperature
18°C
Dew point
9°C
Humidity
55%
QNH
1010 hPa
Weather condition
n/a

Perth Airport is an Australian domestic and international airport located south of Guildford, Western Australia, and is the major commercial airport servicing Western Australia's capital city, Perth.

Climatology

Dry-summer subtropical ”Mediterranean" climate (Köppen climate classification Csa) - characterized by hot, dry summers and mild winters. During the summer, subtropical high pressure cells dominate, making rainfall unlikely except for the occasional thunderstorm. In the winter, periodic storms bring rain.

SKYbrary Partners:

Safety knowledge contributed by: